ARG1244 SABE-SBGR

Flight info

Callsign ARG1244
Flight time 1h 59m
Altitude 37000
Route KUKEN8 KUKEN UM654 GAMOT UZ68 DOLDI UM400 SAVLU UZ121 BUXUK
Aircraft B738/M-SDE2E3FGHIRWXY/LB1

Departure

Time 2026-05-04 02:49
Airport Aeroparque Jorge Newbery (SABE)

Arrival

Time 2026-05-04 04:49
Airport São Paulo/Guarulhos–Governor André Franco Montoro International Airport (SBGR)
Time Latitude Longitude Altitude Speed Heading
2026-05-04 02:36 -34.55681 -58.41487 24 ft 0 kts 14°
2026-05-04 02:39 -34.55705 -58.41494 28 ft 4 kts
2026-05-04 02:40 -34.55727 -58.41491 30 ft 4 kts 307°
2026-05-04 02:40 -34.55739 -58.41465 28 ft 4 kts 297°
2026-05-04 02:40 -34.55746 -58.41450 29 ft 0 kts 297°
2026-05-04 02:43 -34.55745 -58.41450 29 ft 1 kts 297°
2026-05-04 02:43 -34.55740 -58.41463 29 ft 3 kts 296°
2026-05-04 02:43 -34.55731 -58.41484 28 ft 3 kts 296°
2026-05-04 02:44 -34.55723 -58.41505 27 ft 3 kts 294°
2026-05-04 02:44 -34.55726 -58.41536 26 ft 6 kts 249°
2026-05-04 02:44 -34.55764 -58.41583 27 ft 8 kts 216°
2026-05-04 02:44 -34.55812 -58.41568 24 ft 8 kts 125°
2026-05-04 02:45 -34.55838 -58.41508 28 ft 8 kts 118°
2026-05-04 02:45 -34.55864 -58.41448 26 ft 9 kts 116°
2026-05-04 02:45 -34.55899 -58.41360 24 ft 15 kts 117°
2026-05-04 02:45 -34.55961 -58.41242 27 ft 17 kts 127°
2026-05-04 02:46 -34.56030 -58.41131 27 ft 16 kts 128°
2026-05-04 02:46 -34.56098 -58.41023 26 ft 16 kts 127°
2026-05-04 02:46 -34.56158 -58.40916 25 ft 15 kts 118°
2026-05-04 02:46 -34.56173 -58.40831 24 ft 10 kts 108°
2026-05-04 02:47 -34.56211 -58.40760 27 ft 10 kts 124°
2026-05-04 02:47 -34.56252 -58.40685 27 ft 12 kts 124°
2026-05-04 02:47 -34.56305 -58.40593 27 ft 14 kts 128°
2026-05-04 02:47 -34.56374 -58.40514 24 ft 13 kts 138°
2026-05-04 02:48 -34.56441 -58.40440 26 ft 13 kts 137°
2026-05-04 02:48 -34.56503 -58.40382 24 ft 9 kts 169°
2026-05-04 02:48 -34.56557 -58.40415 24 ft 9 kts 226°
2026-05-04 02:48 -34.56537 -58.40482 28 ft 10 kts 305°
2026-05-04 02:49 -34.56467 -58.40605 28 ft 39 kts 304°
2026-05-04 02:49 -34.56178 -58.41125 29 ft 108 kts 304°
2026-05-04 02:49 -34.55656 -58.42088 69 ft 159 kts 301°
2026-05-04 02:49 -34.55073 -58.43248 694 ft 163 kts 306°
2026-05-04 02:50 -34.54336 -58.44269 1436 ft 163 kts 329°
2026-05-04 02:50 -34.53247 -58.44891 1802 ft 184 kts 341°
2026-05-04 02:50 -34.51911 -58.45197 2031 ft 207 kts 357°
2026-05-04 02:50 -34.50425 -58.45003 2353 ft 230 kts 15°
2026-05-04 02:51 -34.48963 -58.44049 2876 ft 246 kts 27°
2026-05-04 02:51 -34.47491 -58.42927 3540 ft 256 kts 28°
2026-05-04 02:51 -34.45967 -58.41756 4255 ft 262 kts 28°
2026-05-04 02:51 -34.44427 -58.40566 5053 ft 266 kts 28°
2026-05-04 02:52 -34.42837 -58.39379 5740 ft 271 kts 27°
2026-05-04 02:52 -34.41199 -58.38202 6465 ft 276 kts 26°
2026-05-04 02:52 -34.39532 -58.37010 7164 ft 280 kts 26°
2026-05-04 02:52 -34.37840 -58.35796 7861 ft 285 kts 26°
2026-05-04 02:53 -34.36121 -58.34560 8558 ft 289 kts 27°
2026-05-04 02:53 -34.34380 -58.33305 9251 ft 294 kts 27°
2026-05-04 02:53 -34.32611 -58.32029 9941 ft 299 kts 27°
2026-05-04 02:53 -34.30801 -58.30723 10428 ft 310 kts 27°
2026-05-04 02:54 -34.28878 -58.29340 10574 ft 333 kts 27°
2026-05-04 02:54 -34.26831 -58.27864 10817 ft 351 kts 27°
2026-05-04 02:54 -34.24712 -58.26331 11343 ft 358 kts 28°
2026-05-04 02:54 -34.22594 -58.24801 11951 ft 361 kts 28°
2026-05-04 02:55 -34.18232 -58.21652 13173 ft 370 kts 29°
2026-05-04 02:55 -34.16082 -58.19909 13763 ft 376 kts 32°
2026-05-04 02:55 -34.13940 -58.18037 14255 ft 382 kts 33°
2026-05-04 02:56 -34.11796 -58.16117 14830 ft 385 kts 33°
2026-05-04 02:56 -34.09640 -58.14181 15428 ft 388 kts 33°
2026-05-04 02:56 -34.07462 -58.12238 15992 ft 391 kts 33°
2026-05-04 02:56 -34.05257 -58.10284 16544 ft 395 kts 32°
2026-05-04 02:57 -34.03028 -58.08319 17088 ft 399 kts 32°
2026-05-04 02:57 -34.00777 -58.06341 17642 ft 402 kts 32°
2026-05-04 02:57 -33.98512 -58.04357 18185 ft 406 kts 32°
2026-05-04 02:57 -33.96219 -58.02351 18676 ft 410 kts 32°
2026-05-04 02:58 -33.93900 -58.00324 19108 ft 414 kts 31°
2026-05-04 02:58 -33.91553 -57.98274 19506 ft 419 kts 32°
2026-05-04 02:58 -33.89178 -57.96201 19925 ft 424 kts 31°
2026-05-04 02:58 -33.86777 -57.94106 20379 ft 428 kts 31°
2026-05-04 02:59 -33.84359 -57.91998 20814 ft 431 kts 31°
2026-05-04 02:59 -33.81920 -57.89872 21258 ft 435 kts 31°
2026-05-04 02:59 -33.79465 -57.87733 21686 ft 438 kts 31°
2026-05-04 02:59 -33.76983 -57.85574 22085 ft 442 kts 31°
2026-05-04 03:00 -33.74477 -57.83394 22485 ft 446 kts 31°
2026-05-04 03:00 -33.71950 -57.81197 22876 ft 450 kts 31°
2026-05-04 03:00 -33.69406 -57.78985 23280 ft 454 kts 31°
2026-05-04 03:00 -33.66838 -57.76755 23664 ft 457 kts 31°
2026-05-04 03:01 -33.64252 -57.74514 24003 ft 460 kts 31°
2026-05-04 03:01 -33.61657 -57.72266 24392 ft 460 kts 31°
2026-05-04 03:01 -33.59056 -57.70020 24824 ft 460 kts 31°
2026-05-04 03:01 -33.56453 -57.67775 25173 ft 463 kts 31°
2026-05-04 03:02 -33.53830 -57.65514 25495 ft 465 kts 31°
2026-05-04 03:02 -33.51199 -57.63246 25874 ft 466 kts 31°
2026-05-04 03:02 -33.48566 -57.60976 26245 ft 467 kts 31°
2026-05-04 03:02 -33.45922 -57.58698 26562 ft 470 kts 31°
2026-05-04 03:03 -33.43263 -57.56409 26865 ft 472 kts 31°
2026-05-04 03:03 -33.40587 -57.54107 27175 ft 474 kts 31°
2026-05-04 03:03 -33.37904 -57.51800 27493 ft 476 kts 31°
2026-05-04 03:03 -33.35207 -57.49482 27803 ft 478 kts 31°
2026-05-04 03:04 -33.32504 -57.47161 28075 ft 480 kts 31°
2026-05-04 03:04 -33.29784 -57.44828 28359 ft 482 kts 31°
2026-05-04 03:04 -33.27048 -57.42483 28651 ft 484 kts 31°
2026-05-04 03:04 -33.24305 -57.40133 28948 ft 486 kts 31°
2026-05-04 03:05 -33.21554 -57.37778 29214 ft 488 kts 31°
2026-05-04 03:05 -33.18791 -57.35416 29525 ft 489 kts 31°
2026-05-04 03:05 -33.16054 -57.33076 29807 ft 491 kts 31°
2026-05-04 03:05 -33.13235 -57.30669 30059 ft 493 kts 31°
2026-05-04 03:06 -33.10442 -57.28287 30277 ft 495 kts 31°
2026-05-04 03:06 -33.07676 -57.25929 30474 ft 497 kts 31°
2026-05-04 03:06 -33.04860 -57.23531 30670 ft 498 kts 31°
2026-05-04 03:06 -33.02033 -57.21124 30840 ft 500 kts 31°
2026-05-04 03:07 -32.99203 -57.18718 31016 ft 503 kts 31°
2026-05-04 03:07 -32.96357 -57.16299 31279 ft 502 kts 31°
2026-05-04 03:07 -32.93517 -57.13886 31582 ft 501 kts 31°
2026-05-04 03:07 -32.90680 -57.11478 31859 ft 501 kts 31°
2026-05-04 03:08 -32.87844 -57.09073 32089 ft 501 kts 31°
2026-05-04 03:08 -32.85002 -57.06665 32329 ft 501 kts 31°
2026-05-04 03:08 -32.82161 -57.04261 32588 ft 501 kts 31°
2026-05-04 03:08 -32.79325 -57.01862 32845 ft 501 kts 31°
2026-05-04 03:09 -32.76549 -56.99517 33061 ft 501 kts 31°
2026-05-04 03:09 -32.73708 -56.97118 33291 ft 501 kts 31°
2026-05-04 03:09 -32.70861 -56.94715 33477 ft 502 kts 31°
2026-05-04 03:09 -32.68014 -56.92315 33658 ft 503 kts 31°
2026-05-04 03:10 -32.65160 -56.89910 33879 ft 503 kts 31°
2026-05-04 03:10 -32.62309 -56.87508 34122 ft 502 kts 31°
2026-05-04 03:10 -32.59460 -56.85110 34316 ft 502 kts 31°
2026-05-04 03:10 -32.56606 -56.82710 34487 ft 503 kts 31°
2026-05-04 03:11 -32.53757 -56.80318 34667 ft 503 kts 31°
2026-05-04 03:11 -32.50899 -56.77921 34854 ft 503 kts 31°
2026-05-04 03:11 -32.48048 -56.75533 35030 ft 503 kts 31°
2026-05-04 03:11 -32.45190 -56.73140 35197 ft 503 kts 31°
2026-05-04 03:12 -32.42337 -56.70752 35350 ft 503 kts 31°
2026-05-04 03:12 -32.39476 -56.68357 35503 ft 503 kts 31°
2026-05-04 03:12 -32.36623 -56.65971 35670 ft 503 kts 31°
2026-05-04 03:12 -32.33763 -56.63580 35846 ft 503 kts 31°
2026-05-04 03:13 -32.30904 -56.61191 36005 ft 503 kts 30°
2026-05-04 03:13 -32.28045 -56.58805 36155 ft 503 kts 30°
2026-05-04 03:13 -32.25185 -56.56419 36324 ft 503 kts 31°
2026-05-04 03:13 -32.22330 -56.54039 36508 ft 502 kts 31°
2026-05-04 03:14 -32.19477 -56.51662 36663 ft 502 kts 30°
2026-05-04 03:14 -32.16623 -56.49287 36788 ft 502 kts 30°
2026-05-04 03:14 -32.13765 -56.46912 36926 ft 502 kts 30°
2026-05-04 03:14 -32.10907 -56.44542 37057 ft 501 kts 30°
2026-05-04 03:15 -32.08045 -56.42196 37099 ft 500 kts 30°
2026-05-04 03:15 -32.02325 -56.37492 37120 ft 503 kts 31°
2026-05-04 03:16 -31.96619 -56.32737 37120 ft 504 kts 31°
2026-05-04 03:16 -31.90890 -56.27988 37120 ft 504 kts 31°
2026-05-04 03:17 -31.86114 -56.24046 37122 ft 505 kts 30°
2026-05-04 03:17 -31.80368 -56.19297 37103 ft 504 kts 31°
2026-05-04 03:18 -31.74620 -56.14570 37118 ft 504 kts 31°
2026-05-04 03:18 -31.68878 -56.09865 37122 ft 503 kts 30°
2026-05-04 03:19 -31.63140 -56.05172 37129 ft 502 kts 31°
2026-05-04 03:19 -31.57414 -56.00481 37124 ft 502 kts 30°
2026-05-04 03:20 -31.51806 -55.95899 37122 ft 501 kts 30°
2026-05-04 03:20 -31.46090 -55.91235 37129 ft 500 kts 31°
2026-05-04 03:21 -31.40689 -55.86064 37135 ft 505 kts 42°
2026-05-04 03:21 -31.35864 -55.80071 37130 ft 506 kts 45°
2026-05-04 03:22 -31.31107 -55.74010 37129 ft 506 kts 44°
2026-05-04 03:22 -31.26268 -55.68039 37126 ft 505 kts 43°
2026-05-04 03:23 -31.21394 -55.62128 37132 ft 505 kts 43°
2026-05-04 03:23 -31.16511 -55.56220 37108 ft 505 kts 43°
2026-05-04 03:24 -31.11632 -55.50312 37135 ft 505 kts 43°
2026-05-04 03:24 -31.06750 -55.44411 37130 ft 506 kts 43°
2026-05-04 03:25 -31.01863 -55.38507 37128 ft 506 kts 43°
2026-05-04 03:25 -30.96946 -55.32634 37142 ft 509 kts 43°
2026-05-04 03:26 -30.91960 -55.26721 37141 ft 514 kts 43°
2026-05-04 03:26 -30.86938 -55.20756 37139 ft 518 kts 43°
2026-05-04 03:27 -30.81876 -55.14740 37137 ft 522 kts 43°
2026-05-04 03:27 -30.76781 -55.08692 37125 ft 524 kts 43°
2026-05-04 03:28 -30.71669 -55.02639 37129 ft 525 kts 43°
2026-05-04 03:28 -30.66609 -54.96655 37133 ft 526 kts 43°
2026-05-04 03:29 -30.61481 -54.90599 37128 ft 526 kts 43°
2026-05-04 03:29 -30.56346 -54.84552 37126 ft 525 kts 43°
2026-05-04 03:30 -30.51219 -54.78534 37129 ft 524 kts 43°
2026-05-04 03:30 -30.46096 -54.72523 37128 ft 523 kts 43°
2026-05-04 03:31 -30.40983 -54.66527 37119 ft 523 kts 43°
2026-05-04 03:31 -30.35873 -54.60543 37131 ft 522 kts 43°
2026-05-04 03:32 -30.30761 -54.54567 37123 ft 522 kts 43°
2026-05-04 03:32 -30.25648 -54.48599 37132 ft 522 kts 43°
2026-05-04 03:33 -30.20527 -54.42632 37127 ft 522 kts 43°
2026-05-04 03:33 -30.15404 -54.36672 37125 ft 523 kts 43°
2026-05-04 03:34 -30.10281 -54.30720 37120 ft 523 kts 43°
2026-05-04 03:34 -30.05150 -54.24770 37113 ft 522 kts 43°
2026-05-04 03:35 -30.00021 -54.18830 37120 ft 523 kts 43°
2026-05-04 03:35 -29.94926 -54.12939 37128 ft 523 kts 43°
2026-05-04 03:36 -29.89776 -54.06994 37124 ft 524 kts 43°
2026-05-04 03:36 -29.84618 -54.01049 37122 ft 525 kts 43°
2026-05-04 03:37 -29.79511 -53.95172 37115 ft 526 kts 43°
2026-05-04 03:37 -29.74337 -53.89226 37113 ft 526 kts 43°
2026-05-04 03:38 -29.69154 -53.83278 37084 ft 526 kts 42°
2026-05-04 03:38 -29.63967 -53.77336 37101 ft 526 kts 42°
2026-05-04 03:39 -29.58774 -53.71397 37103 ft 527 kts 42°
2026-05-04 03:39 -29.53581 -53.65466 37110 ft 527 kts 42°
2026-05-04 03:40 -29.48379 -53.59535 37125 ft 527 kts 42°
2026-05-04 03:40 -29.43181 -53.53617 37129 ft 526 kts 42°
2026-05-04 03:41 -29.37981 -53.47705 37124 ft 526 kts 42°
2026-05-04 03:41 -29.32780 -53.41801 37117 ft 526 kts 42°
2026-05-04 03:42 -29.27582 -53.35909 37133 ft 526 kts 42°
2026-05-04 03:42 -29.22374 -53.30016 37130 ft 526 kts 42°
2026-05-04 03:43 -29.17166 -53.24132 37154 ft 526 kts 42°
2026-05-04 03:43 -29.11948 -53.18245 37127 ft 527 kts 42°
2026-05-04 03:44 -29.06763 -53.12403 37134 ft 527 kts 42°
2026-05-04 03:44 -29.01537 -53.06525 37134 ft 527 kts 41°
2026-05-04 03:45 -28.96283 -53.00622 37118 ft 527 kts 41°
2026-05-04 03:45 -28.91160 -52.94877 37127 ft 527 kts 41°
2026-05-04 03:46 -28.85929 -52.89019 37131 ft 527 kts 41°
2026-05-04 03:46 -28.80692 -52.83162 37132 ft 527 kts 41°
2026-05-04 03:47 -28.75456 -52.77316 37127 ft 527 kts 41°
2026-05-04 03:47 -28.70217 -52.71474 37135 ft 527 kts 41°
2026-05-04 03:48 -28.64975 -52.65639 37127 ft 527 kts 41°
2026-05-04 03:48 -28.59728 -52.59805 37110 ft 527 kts 41°
2026-05-04 03:49 -28.54484 -52.53984 37122 ft 527 kts 41°
2026-05-04 03:49 -28.49240 -52.48167 37135 ft 527 kts 41°
2026-05-04 03:50 -28.43993 -52.42355 37132 ft 527 kts 41°
2026-05-04 03:50 -28.38740 -52.36551 37132 ft 527 kts 41°
2026-05-04 03:51 -28.33484 -52.30752 37128 ft 527 kts 40°
2026-05-04 03:51 -28.28227 -52.24959 37133 ft 526 kts 40°
2026-05-04 03:52 -28.22967 -52.19181 37120 ft 525 kts 40°
2026-05-04 03:52 -28.17718 -52.13420 37132 ft 525 kts 40°
2026-05-04 03:53 -28.12477 -52.07671 37143 ft 524 kts 40°
2026-05-04 03:53 -28.07237 -52.01930 37151 ft 524 kts 40°
2026-05-04 03:54 -28.02098 -51.96309 37144 ft 524 kts 40°
2026-05-04 03:54 -27.96829 -51.90552 37153 ft 523 kts 40°
2026-05-04 03:55 -27.91588 -51.84835 37150 ft 524 kts 40°
2026-05-04 03:55 -27.86345 -51.79125 37153 ft 524 kts 39°
2026-05-04 03:56 -27.81094 -51.73412 37152 ft 523 kts 39°
2026-05-04 03:56 -27.75853 -51.67718 37160 ft 523 kts 39°
2026-05-04 03:57 -27.70602 -51.62022 37160 ft 524 kts 39°
2026-05-04 03:57 -27.65351 -51.56334 37162 ft 523 kts 39°
2026-05-04 03:58 -27.57474 -51.47816 37164 ft 523 kts 39°
2026-05-04 03:58 -27.52256 -51.42182 37153 ft 523 kts 39°
2026-05-04 03:59 -27.47387 -51.36078 37175 ft 528 kts 51°
2026-05-04 03:59 -27.43294 -51.29188 37183 ft 529 kts 53°
2026-05-04 04:00 -27.39203 -51.22305 37174 ft 529 kts 52°
2026-05-04 04:00 -27.34972 -51.15547 37174 ft 528 kts 50°
2026-05-04 04:01 -27.30663 -51.08856 37199 ft 528 kts 50°
2026-05-04 04:01 -27.26351 -51.02173 37179 ft 528 kts 50°
2026-05-04 04:02 -27.22117 -50.95586 37198 ft 528 kts 50°
2026-05-04 04:02 -27.17820 -50.88896 37193 ft 528 kts 50°
2026-05-04 04:03 -27.14212 -50.83287 37194 ft 528 kts 50°
2026-05-04 04:03 -27.09905 -50.76602 37192 ft 528 kts 50°
2026-05-04 04:04 -27.05624 -50.69968 37197 ft 528 kts 50°
2026-05-04 04:04 -27.01311 -50.63294 37199 ft 528 kts 50°
2026-05-04 04:05 -26.96994 -50.56623 37216 ft 529 kts 50°
2026-05-04 04:05 -26.92672 -50.49951 37230 ft 529 kts 49°
2026-05-04 04:06 -26.88338 -50.43280 37226 ft 529 kts 50°
2026-05-04 04:06 -26.83996 -50.36610 37221 ft 530 kts 49°
2026-05-04 04:07 -26.79661 -50.29950 37232 ft 530 kts 49°
2026-05-04 04:07 -26.75321 -50.23289 37241 ft 529 kts 49°
2026-05-04 04:08 -26.70968 -50.16635 37237 ft 529 kts 49°
2026-05-04 04:08 -26.66622 -50.09997 37241 ft 529 kts 49°
2026-05-04 04:09 -26.62276 -50.03364 37234 ft 529 kts 49°
2026-05-04 04:09 -26.57978 -49.96811 37231 ft 529 kts 49°
2026-05-04 04:10 -26.53632 -49.90192 37243 ft 528 kts 49°
2026-05-04 04:10 -26.49309 -49.83622 37251 ft 529 kts 49°
2026-05-04 04:11 -26.44947 -49.76997 37248 ft 530 kts 49°
2026-05-04 04:11 -26.40572 -49.70369 37246 ft 530 kts 48°
2026-05-04 04:12 -26.36158 -49.63696 37246 ft 531 kts 48°
2026-05-04 04:12 -26.31801 -49.57109 37252 ft 531 kts 48°
2026-05-04 04:13 -26.27408 -49.50477 37239 ft 532 kts 48°
2026-05-04 04:13 -26.23005 -49.43851 37244 ft 532 kts 48°
2026-05-04 04:14 -26.18603 -49.37226 37248 ft 532 kts 48°
2026-05-04 04:14 -26.14194 -49.30604 37246 ft 532 kts 47°
2026-05-04 04:15 -26.09074 -49.24847 37206 ft 516 kts 29°
2026-05-04 04:15 -26.03066 -49.20703 37240 ft 506 kts 21°
2026-05-04 04:16 -25.96980 -49.16761 37238 ft 508 kts 22°
2026-05-04 04:16 -25.90900 -49.12739 37239 ft 509 kts 22°
2026-05-04 04:17 -25.84823 -49.08680 37237 ft 510 kts 22°
2026-05-04 04:17 -25.78739 -49.04622 37215 ft 510 kts 22°
2026-05-04 04:18 -25.72651 -49.00579 37229 ft 510 kts 22°
2026-05-04 04:18 -25.66642 -48.96535 37249 ft 510 kts 22°
2026-05-04 04:19 -25.60543 -48.92501 37253 ft 511 kts 22°
2026-05-04 04:19 -25.54440 -48.88472 37241 ft 510 kts 22°
2026-05-04 04:20 -25.48383 -48.84439 37205 ft 511 kts 22°
2026-05-04 04:20 -25.42244 -48.80520 37222 ft 508 kts 20°
2026-05-04 04:21 -25.36014 -48.76827 37228 ft 509 kts 19°
2026-05-04 04:21 -25.29782 -48.73074 37233 ft 510 kts 20°
2026-05-04 04:22 -25.23554 -48.69293 37220 ft 511 kts 20°
2026-05-04 04:22 -25.17299 -48.65577 37213 ft 510 kts 19°
2026-05-04 04:23 -25.11070 -48.61803 37206 ft 510 kts 20°
2026-05-04 04:23 -25.04859 -48.58077 37223 ft 509 kts 20°
2026-05-04 04:24 -24.98663 -48.54337 37227 ft 509 kts 20°
2026-05-04 04:24 -24.92441 -48.50587 37219 ft 510 kts 20°
2026-05-04 04:25 -24.86233 -48.46821 37219 ft 509 kts 20°
2026-05-04 04:25 -24.80007 -48.43116 37207 ft 510 kts 20°
2026-05-04 04:26 -24.73786 -48.39347 37218 ft 512 kts 20°
2026-05-04 04:26 -24.67589 -48.35598 37202 ft 512 kts 20°
2026-05-04 04:27 -24.61348 -48.31832 37207 ft 512 kts 21°
2026-05-04 04:27 -24.55124 -48.28073 37194 ft 510 kts 20°
2026-05-04 04:28 -24.48907 -48.24350 37206 ft 509 kts 20°
2026-05-04 04:28 -24.42686 -48.20628 37198 ft 509 kts 20°
2026-05-04 04:29 -24.36484 -48.16911 37199 ft 507 kts 20°
2026-05-04 04:29 -24.30288 -48.13228 37205 ft 506 kts 19°
2026-05-04 04:30 -24.24058 -48.09571 36781 ft 513 kts 20°
2026-05-04 04:30 -24.20916 -48.07721 36247 ft 511 kts 20°
2026-05-04 04:30 -24.17791 -48.05913 35661 ft 507 kts 19°
2026-05-04 04:31 -24.14686 -48.04104 35202 ft 503 kts 19°
2026-05-04 04:31 -24.11617 -48.02287 34751 ft 500 kts 20°
2026-05-04 04:31 -24.08574 -48.00477 34307 ft 497 kts 20°
2026-05-04 04:31 -24.05609 -47.98749 33792 ft 492 kts 18°
2026-05-04 04:32 -24.02593 -47.97001 33325 ft 489 kts 19°
2026-05-04 04:32 -23.99621 -47.95242 32876 ft 485 kts 19°
2026-05-04 04:32 -23.96669 -47.93490 32442 ft 481 kts 19°
2026-05-04 04:32 -23.93735 -47.91754 31996 ft 477 kts 19°
2026-05-04 04:33 -23.90822 -47.90041 31571 ft 474 kts 19°
2026-05-04 04:33 -23.87928 -47.88345 31176 ft 470 kts 19°
2026-05-04 04:33 -23.85060 -47.86665 30734 ft 467 kts 19°
2026-05-04 04:33 -23.82194 -47.84990 30313 ft 464 kts 19°
2026-05-04 04:34 -23.79371 -47.83336 29887 ft 459 kts 19°
2026-05-04 04:34 -23.76558 -47.81658 29499 ft 468 kts 24°
2026-05-04 04:34 -23.73970 -47.79368 29000 ft 487 kts 38°
2026-05-04 04:34 -23.71591 -47.76741 28510 ft 488 kts 39°
2026-05-04 04:35 -23.69229 -47.74096 27995 ft 483 kts 39°
2026-05-04 04:35 -23.66858 -47.71529 27526 ft 479 kts 38°
2026-05-04 04:35 -23.64475 -47.69017 27070 ft 474 kts 38°
2026-05-04 04:35 -23.62115 -47.66548 26727 ft 466 kts 38°
2026-05-04 04:36 -23.59792 -47.64115 26386 ft 460 kts 38°
2026-05-04 04:36 -23.57532 -47.61747 26052 ft 454 kts 38°
2026-05-04 04:36 -23.55272 -47.59376 25725 ft 448 kts 38°
2026-05-04 04:36 -23.53050 -47.57011 25270 ft 448 kts 43°
2026-05-04 04:37 -23.49404 -47.47681 23997 ft 451 kts 84°
2026-05-04 04:37 -23.49129 -47.44293 23637 ft 446 kts 85°
2026-05-04 04:38 -23.48872 -47.40947 23197 ft 442 kts 85°
2026-05-04 04:38 -23.48611 -47.37610 22743 ft 439 kts 85°
2026-05-04 04:38 -23.48344 -47.34314 22265 ft 437 kts 85°
2026-05-04 04:38 -23.48066 -47.30982 21213 ft 447 kts 84°
2026-05-04 04:39 -23.47774 -47.27576 20082 ft 454 kts 84°
2026-05-04 04:39 -23.47476 -47.24154 19243 ft 452 kts 84°
2026-05-04 04:39 -23.47179 -47.20770 18592 ft 445 kts 84°
2026-05-04 04:39 -23.46886 -47.17445 17902 ft 436 kts 84°
2026-05-04 04:40 -23.46597 -47.14181 17104 ft 429 kts 84°
2026-05-04 04:40 -23.46312 -47.10959 16227 ft 425 kts 84°
2026-05-04 04:40 -23.46029 -47.07770 15376 ft 421 kts 84°
2026-05-04 04:40 -23.45749 -47.04619 14553 ft 416 kts 84°
2026-05-04 04:41 -23.45471 -47.01493 13693 ft 412 kts 84°
2026-05-04 04:41 -23.45204 -46.98484 12805 ft 406 kts 84°
2026-05-04 04:41 -23.44933 -46.95444 11936 ft 401 kts 84°
2026-05-04 04:41 -23.44665 -46.92441 11074 ft 395 kts 83°
2026-05-04 04:42 -23.44401 -46.89481 10263 ft 390 kts 83°
2026-05-04 04:42 -23.44144 -46.86608 9903 ft 371 kts 83°
2026-05-04 04:42 -23.43900 -46.83882 9507 ft 354 kts 83°
2026-05-04 04:42 -23.43666 -46.81266 9157 ft 340 kts 83°
2026-05-04 04:43 -23.43441 -46.78785 8840 ft 327 kts 83°
2026-05-04 04:43 -23.43223 -46.76372 8585 ft 313 kts 83°
2026-05-04 04:43 -23.43215 -46.74051 8307 ft 303 kts 101°
2026-05-04 04:43 -23.44021 -46.71989 8051 ft 294 kts 127°
2026-05-04 04:44 -23.45511 -46.70558 7823 ft 282 kts 149°
2026-05-04 04:44 -23.47013 -46.69266 7556 ft 273 kts 127°
2026-05-04 04:44 -23.47898 -46.67461 7163 ft 270 kts 110°
2026-05-04 04:44 -23.48542 -46.65555 6789 ft 266 kts 107°
2026-05-04 04:45 -23.48799 -46.63612 6300 ft 257 kts 78°
2026-05-04 04:45 -23.48067 -46.61896 5775 ft 251 kts 51°
2026-05-04 04:45 -23.46968 -46.60440 5239 ft 245 kts 57°
2026-05-04 04:47 -23.44400 -46.51905 3193 ft 149 kts 74°
2026-05-04 04:47 -23.44106 -46.50843 2961 ft 145 kts 75°
2026-05-04 04:47 -23.43823 -46.49785 2784 ft 147 kts 73°
2026-05-04 04:47 -23.43534 -46.48719 2576 ft 147 kts 74°
2026-05-04 04:48 -23.43249 -46.47672 2463 ft 134 kts 74°
2026-05-04 04:49 -23.42714 -46.46213 2467 ft 16 kts 336°
2026-05-04 04:49 -23.42627 -46.46249 2465 ft 12 kts 312°
2026-05-04 04:49 -23.42630 -46.46337 2464 ft 13 kts 253°
2026-05-04 04:49 -23.42656 -46.46430 2461 ft 13 kts 253°
2026-05-04 04:50 -23.42673 -46.46492 2462 ft 13 kts 254°
2026-05-04 04:50 -23.42697 -46.46580 2463 ft 12 kts 252°
2026-05-04 04:50 -23.42721 -46.46668 2464 ft 12 kts 254°
2026-05-04 04:50 -23.42745 -46.46755 2465 ft 13 kts 253°
2026-05-04 04:51 -23.42774 -46.46863 2463 ft 16 kts 253°
2026-05-04 04:51 -23.42803 -46.46977 2470 ft 15 kts 253°
2026-05-04 04:51 -23.42832 -46.47085 2465 ft 15 kts 253°
2026-05-04 04:51 -23.42861 -46.47188 2465 ft 14 kts 253°
2026-05-04 04:52 -23.42887 -46.47287 2465 ft 13 kts 254°
2026-05-04 04:52 -23.42912 -46.47381 2468 ft 13 kts 253°
2026-05-04 04:52 -23.42909 -46.47471 2463 ft 10 kts 316°
2026-05-04 04:52 -23.42871 -46.47508 2463 ft 7 kts 296°
2026-05-04 04:53 -23.42876 -46.47559 2464 ft 3 kts 255°
2026-05-04 04:53 -23.42877 -46.47564 2465 ft 0 kts 256°
2026-05-04 04:53 -23.42877 -46.47565 2465 ft 1 kts 261°
2026-05-04 04:53 -23.42868 -46.47571 2463 ft 3 kts 332°
2026-05-04 04:54 -23.42853 -46.47583 2469 ft 3 kts 313°
2026-05-04 04:54 -23.42844 -46.47598 2465 ft 2 kts 301°
2026-05-04 04:54 -23.42835 -46.47615 2466 ft 4 kts 300°
2026-05-04 04:54 -23.42823 -46.47638 2463 ft 1 kts 299°